Location: Lake Arresoe
(56.0000°N, 12.5000°E)
Time: 11:18:27
(UTC+02:00)

Resurs 1-4 Rocket - Pass Details

Date: 20 August 2020
Orbit: 799 x 815 km, 98.6° (Epoch: 23 September)

Event Time Altitude Azimuth Distance (km) Brightness Sun altitude
Rises 04:47:11 0° 12° (NNE) 3,331 6.2 -8.5°
Reaches altitude 10° 04:49:56 10° 359° (N) 2,394 5.1 -8.2°
Maximum altitude 04:54:00 23° 308° (NW) 1,644 3.6 -7.8°
Drops below altitude 10° 04:58:04 10° 257° (WSW) 2,379 4.0 -7.3°
Enters shadow 04:58:45 - 253° (WSW) 2,596 4.1 -7.2°
